Regional Weather Roundup
Issued by NWS Northern Indiana

Home | Current Version | Previous Version | Graphics & Text | Print | Product List | Glossary On
Versions: 1 2 3 4 5 6 7 8 9 10 11 12 13 14 15 16 17 18 19 20 21 22 23 24 25 26 27 28 29 30 31 32 33 34 35 36 37 38 39 40 41 42 43 44 45 46 47 48 49 50
000
ASUS43 KIWX 282000
RWRIWX

KIWX WEATHER ROUNDUP
NATIONAL WEATHER SERVICE NORTHERN INDIANA
400 PM EDT FRI AUG 28 2015

NOTE: "FAIR" INDICATES FEW OR NO CLOUDS BELOW 12,000 FEET WITH NO
SIGNIFICANT WEATHER AND/OR OBSTRUCTIONS TO VISIBILITY.

* THESE STATIONS ARE NOT UNDER NWS QUALITY CONTROL. THEY ALSO MAY NOT
  REPORT WEATHER SUCH AS PRECIPITATION OR FOG.

INZ001>027-282100-
NORTHERN INDIANA

CITY           SKY/WX    TMP DP  RH WIND       PRES   REMARKS
GARY*          CLOUDY    75  57  53 CALM      30.13F
KNOX*          CLOUDY    75  57  53 SW3       30.12F
SOUTH BEND     CLOUDY    76  60  57 W6        30.14F
ELKHART*       PTSUNNY   77  59  53 SW5       30.14F
GOSHEN         PTSUNNY   78  60  53 SW6       30.14F
MONTICELLO*    CLOUDY    76  60  56 S3        30.13F
WARSAW*        PTSUNNY   75  59  57 CALM      30.14F
ANGOLA*        MOSUNNY   77  68  73 SW6       30.15F
FORT WAYNE     PTSUNNY   76  58  53 CALM      30.15F
PERU/GRISSOM   CLOUDY    77  60  54 SE2       30.13F

$$
INZ028>050-282100-
CENTRAL INDIANA

CITY           SKY/WX    TMP DP  RH WIND       PRES   REMARKS
LAFAYETTE      CLOUDY    78  56  46 SE6       30.12F
KOKOMO*        CLOUDY    77  59  53 S6        30.15S
MUNCIE*        PTSUNNY   75  54  47 MISG      30.15F
INDIANAPOLIS   PTSUNNY   77  54  44 S8        30.12F

$$
MIZ043>046-050>051-056>058-064>065-071>073-077>080-282100-
SOUTHWEST LOWER MICHIGAN

CITY           SKY/WX    TMP DP  RH WIND       PRES   REMARKS
BATTLE CREEK   PTSUNNY   76  60  57 W7        30.15F
BENTON HARBOR  CLOUDY    74  61  63 VRB6      30.13F
COLDWATER*     CLOUDY    75  61  60 W3        30.15F
HILLSDALE*     CLOUDY    75  60  58 SW6       30.16F
HOLLAND        CLOUDY    74  59  59 W6        30.14F
GRAND RAPIDS   PTSUNNY   75  59  57 SW10      30.14F
KALAMAZOO      PTSUNNY   77  60  55 W7        30.14F
STURGIS*       PTSUNNY   75  61  60 SW3       30.14F
THREE RIVERS*  PTSUNNY   77  60  55 W3        30.14F

$$
OHZ001>008-015>018-024>025-282100-
NORTHWEST OHIO

CITY           SKY/WX    TMP DP  RH WIND       PRES   REMARKS
DEFIANCE       CLOUDY    77  58  51 VRB5      30.15F
FINDLAY        CLOUDY    76  57  51 SW5       30.15F
TOLEDO EXPRESS CLOUDY    75  57  53 CALM      30.15F
TOLEDO METCALF PTSUNNY   77  54  44 W6        30.16F
LIMA           PTSUNNY   78  56  46 SE6       30.16F

$$
AND FOR LAKE MICHIGAN COASTAL AND OPEN LAKE BUOY OBSERVATIONS

STATION/POSITION TEMP    WIND        PRES    VSBY  WAVE
                 AIR SEA DIR/SP/G                  HT/PER
                 (F)     (DEG/KT/KT) (MB)    (MI)  (FT/S)
MICHIGAN CITY     73     230/  5/  6   N/A
BURNS HARBOR      74     260/  5/  7 1020.7F
SAINT JOSEPH      78     240/  1/  1 1021.3S
SOUTH LAKE BUOY   68 69  170/  8/ 10 1019.8F         1/ 4
4 MI NW BRIDGMAN  71 72  360/  4/  4   N/A           1
MICHIGAN CITY     73 71  280/  2/  2   N/A           0

$$
&&



USA.gov is the U.S. government's official web portal to all federal, state and local government web resources and services.